Year,Month,Day,Hour,Minute,Value (Times are PST for temperature in C)
2009,12,06,00,00,3.70
2009,12,06,00,01,3.70
2009,12,06,00,02,3.70
2009,12,06,00,03,3.70
2009,12,06,00,04,3.70
2009,12,06,00,05,3.70
2009,12,06,00,06,3.70
2009,12,06,00,07,3.70
2009,12,06,00,08,3.70
2009,12,06,00,09,3.70
2009,12,06,00,10,3.70
2009,12,06,00,11,3.70
2009,12,06,00,12,3.70
2009,12,06,00,13,3.70
2009,12,06,00,14,3.70
2009,12,06,00,15,3.70
2009,12,06,00,16,3.70
2009,12,06,00,17,3.70
2009,12,06,00,18,3.70
2009,12,06,00,19,3.70
2009,12,06,00,20,3.70
2009,12,06,00,21,3.70
2009,12,06,00,22,3.70
2009,12,06,00,23,3.70
2009,12,06,00,24,3.70
2009,12,06,00,25,3.70
2009,12,06,00,26,3.70
2009,12,06,00,27,3.70
2009,12,06,00,28,3.70
2009,12,06,00,29,3.70
2009,12,06,00,30,3.70
2009,12,06,00,31,3.60
2009,12,06,00,32,3.60
2009,12,06,00,33,3.60
2009,12,06,00,34,3.60
2009,12,06,00,35,3.60
2009,12,06,00,36,3.70
2009,12,06,00,37,3.70
2009,12,06,00,38,3.70
2009,12,06,00,39,3.60
2009,12,06,00,40,3.60
2009,12,06,00,41,3.60
2009,12,06,00,42,3.60
2009,12,06,00,43,3.70
2009,12,06,00,44,3.70
2009,12,06,00,45,3.70
2009,12,06,00,46,3.70
2009,12,06,00,47,3.70
2009,12,06,00,48,3.70
2009,12,06,00,49,3.80
2009,12,06,00,50,3.80
2009,12,06,00,51,3.80
2009,12,06,00,52,3.90
2009,12,06,00,53,3.90
2009,12,06,00,54,3.90
2009,12,06,00,55,3.90
2009,12,06,00,56,4.00
2009,12,06,00,57,4.10
2009,12,06,00,58,4.10
2009,12,06,00,59,4.10
2009,12,06,01,00,4.10
2009,12,06,01,01,4.10
2009,12,06,01,02,4.10
2009,12,06,01,03,4.00
2009,12,06,01,04,3.90
2009,12,06,01,05,4.00
2009,12,06,01,06,4.10
2009,12,06,01,07,4.10
2009,12,06,01,08,4.20
2009,12,06,01,09,4.20
2009,12,06,01,10,4.20
2009,12,06,01,11,4.20
2009,12,06,01,12,4.20
2009,12,06,01,13,4.20
2009,12,06,01,14,4.20
2009,12,06,01,15,4.20
2009,12,06,01,16,4.20
2009,12,06,01,17,4.10
2009,12,06,01,18,4.10
2009,12,06,01,19,4.10
2009,12,06,01,20,4.00
2009,12,06,01,21,4.00
2009,12,06,01,22,4.00
2009,12,06,01,23,4.00
2009,12,06,01,24,4.00
2009,12,06,01,25,4.00
2009,12,06,01,26,4.00
2009,12,06,01,27,4.00
2009,12,06,01,28,4.00
2009,12,06,01,29,4.10
2009,12,06,01,30,4.10
2009,12,06,01,31,4.10
2009,12,06,01,32,4.10
2009,12,06,01,33,4.10
2009,12,06,01,34,4.10
2009,12,06,01,35,4.10
2009,12,06,01,36,4.10
2009,12,06,01,37,4.00
2009,12,06,01,38,4.00
2009,12,06,01,39,4.00
2009,12,06,01,40,3.90
2009,12,06,01,41,3.90
2009,12,06,01,42,3.90
2009,12,06,01,43,3.90
2009,12,06,01,44,3.90
2009,12,06,01,45,3.90
2009,12,06,01,46,3.90
2009,12,06,01,47,3.80
2009,12,06,01,48,3.80
2009,12,06,01,49,3.80
2009,12,06,01,50,3.80
2009,12,06,01,51,3.80
2009,12,06,01,52,3.80
2009,12,06,01,53,3.70
2009,12,06,01,54,3.70
2009,12,06,01,55,3.70
2009,12,06,01,56,3.70
2009,12,06,01,57,3.70
2009,12,06,01,58,3.70
2009,12,06,01,59,3.70
2009,12,06,02,00,3.70
2009,12,06,02,01,3.80
2009,12,06,02,02,3.80
2009,12,06,02,03,3.80
2009,12,06,02,04,3.90
2009,12,06,02,05,3.90
2009,12,06,02,06,3.90
2009,12,06,02,07,3.90
2009,12,06,02,08,3.90
2009,12,06,02,09,3.90
2009,12,06,02,10,3.90
2009,12,06,02,11,3.90
2009,12,06,02,12,3.90
2009,12,06,02,13,4.00
2009,12,06,02,14,4.00
2009,12,06,02,15,4.00
2009,12,06,02,16,3.90
2009,12,06,02,17,3.80
2009,12,06,02,18,3.70
2009,12,06,02,19,3.60
2009,12,06,02,20,3.40
2009,12,06,02,21,3.20
2009,12,06,02,22,3.10
2009,12,06,02,23,2.90
2009,12,06,02,24,2.70
2009,12,06,02,25,2.60
2009,12,06,02,26,2.50
2009,12,06,02,27,2.40
2009,12,06,02,28,2.30
2009,12,06,02,29,2.20
2009,12,06,02,30,2.20
2009,12,06,02,31,2.20
2009,12,06,02,32,2.20
2009,12,06,02,33,2.20
2009,12,06,02,34,2.20
2009,12,06,02,35,2.20
2009,12,06,02,36,2.20
2009,12,06,02,37,2.20
2009,12,06,02,38,2.20
2009,12,06,02,39,2.20
2009,12,06,02,40,2.20
2009,12,06,02,41,2.20
2009,12,06,02,42,2.10
2009,12,06,02,43,2.10
2009,12,06,02,44,2.10
2009,12,06,02,45,2.10
2009,12,06,02,46,2.00
2009,12,06,02,47,2.00
2009,12,06,02,48,1.90
2009,12,06,02,49,1.90
2009,12,06,02,50,1.90
2009,12,06,02,51,1.90
2009,12,06,02,52,1.90
2009,12,06,02,53,1.80
2009,12,06,02,54,1.80
2009,12,06,02,55,1.80
2009,12,06,02,56,1.80
2009,12,06,02,57,1.80
2009,12,06,02,58,1.80
2009,12,06,02,59,1.70
2009,12,06,03,00,1.70
2009,12,06,03,01,1.70
2009,12,06,03,02,1.70
2009,12,06,03,03,1.70
2009,12,06,03,04,1.70
2009,12,06,03,05,1.60
2009,12,06,03,06,1.60
2009,12,06,03,07,1.60
2009,12,06,03,08,1.60
2009,12,06,03,09,1.60
2009,12,06,03,10,1.60
2009,12,06,03,11,1.70
2009,12,06,03,12,1.80
2009,12,06,03,13,1.90
2009,12,06,03,14,1.90
2009,12,06,03,15,1.90
2009,12,06,03,16,1.90
2009,12,06,03,17,1.90
2009,12,06,03,18,1.90
2009,12,06,03,19,1.90
2009,12,06,03,20,1.90
2009,12,06,03,21,1.80
2009,12,06,03,22,1.80
2009,12,06,03,23,1.70
2009,12,06,03,24,1.70
2009,12,06,03,25,1.70
2009,12,06,03,26,1.60
2009,12,06,03,27,1.60
2009,12,06,03,28,1.60
2009,12,06,03,29,1.60
2009,12,06,03,30,1.60
2009,12,06,03,31,1.60
2009,12,06,03,32,1.70
2009,12,06,03,33,1.70
2009,12,06,03,34,1.70
2009,12,06,03,35,1.70
2009,12,06,03,36,1.70
2009,12,06,03,37,1.70
2009,12,06,03,38,1.70
2009,12,06,03,39,1.70
2009,12,06,03,40,1.70
2009,12,06,03,41,1.70
2009,12,06,03,42,1.70
2009,12,06,03,43,1.70
2009,12,06,03,44,1.70
2009,12,06,03,45,1.60
2009,12,06,03,46,1.60
2009,12,06,03,47,1.50
2009,12,06,03,48,1.40
2009,12,06,03,49,1.40
2009,12,06,03,50,1.40
2009,12,06,03,51,1.30
2009,12,06,03,52,1.30
2009,12,06,03,53,1.30
2009,12,06,03,54,1.30
2009,12,06,03,55,1.30
2009,12,06,03,56,1.20
2009,12,06,03,57,1.20
2009,12,06,03,58,1.10
2009,12,06,03,59,1.00
2009,12,06,04,00,1.00
2009,12,06,04,01,1.00
2009,12,06,04,02,0.90
2009,12,06,04,03,0.90
2009,12,06,04,04,0.80
2009,12,06,04,05,0.80
2009,12,06,04,06,0.80
2009,12,06,04,07,0.70
2009,12,06,04,08,0.70
2009,12,06,04,09,0.70
2009,12,06,04,10,0.60
2009,12,06,04,11,0.60
2009,12,06,04,12,0.60
2009,12,06,04,13,0.60
2009,12,06,04,14,0.50
2009,12,06,04,15,0.50
2009,12,06,04,16,0.40
2009,12,06,04,17,0.40
2009,12,06,04,18,0.30
2009,12,06,04,19,0.30
2009,12,06,04,20,0.20
2009,12,06,04,21,0.20
2009,12,06,04,22,0.10
2009,12,06,04,23,0.00
2009,12,06,04,24,-0.10
2009,12,06,04,25,-0.10
2009,12,06,04,26,-0.20
2009,12,06,04,27,-0.20
2009,12,06,04,28,-0.30
2009,12,06,04,29,-0.30
2009,12,06,04,30,-0.30
2009,12,06,04,31,-0.30
2009,12,06,04,32,-0.30
2009,12,06,04,33,-0.30
2009,12,06,04,34,-0.30
2009,12,06,04,35,-0.20
2009,12,06,04,36,-0.20
2009,12,06,04,37,-0.20
2009,12,06,04,38,-0.20
2009,12,06,04,39,-0.20
2009,12,06,04,40,-0.20
2009,12,06,04,41,-0.20
2009,12,06,04,42,-0.20
2009,12,06,04,43,-0.10
2009,12,06,04,44,0.00
2009,12,06,04,45,0.10
2009,12,06,04,46,0.20
2009,12,06,04,47,0.30
2009,12,06,04,48,0.30
2009,12,06,04,49,0.40
2009,12,06,04,50,0.50
2009,12,06,04,51,0.60
2009,12,06,04,52,0.70
2009,12,06,04,53,0.90
2009,12,06,04,54,1.10
2009,12,06,04,55,1.20
2009,12,06,04,56,1.30
2009,12,06,04,57,1.40
2009,12,06,04,58,1.60
2009,12,06,04,59,1.80
2009,12,06,05,00,2.00
2009,12,06,05,01,2.20
2009,12,06,05,02,2.40
2009,12,06,05,03,2.60
2009,12,06,05,04,2.80
2009,12,06,05,05,3.00
2009,12,06,05,06,3.10
2009,12,06,05,07,3.20
2009,12,06,05,08,3.20
2009,12,06,05,09,3.30
2009,12,06,05,10,3.40
2009,12,06,05,11,3.40
2009,12,06,05,12,3.40
2009,12,06,05,13,3.50
2009,12,06,05,14,3.50
2009,12,06,05,15,3.60
2009,12,06,05,16,3.60
2009,12,06,05,17,3.60
2009,12,06,05,18,3.60
2009,12,06,05,19,3.50
2009,12,06,05,20,3.50
2009,12,06,05,21,3.40
2009,12,06,05,22,3.40
2009,12,06,05,23,3.40
2009,12,06,05,24,3.40
2009,12,06,05,25,3.40
2009,12,06,05,26,3.40
2009,12,06,05,27,3.50
2009,12,06,05,28,3.50
2009,12,06,05,29,3.60
2009,12,06,05,30,3.60
2009,12,06,05,31,3.50
2009,12,06,05,32,3.50
2009,12,06,05,33,3.50
2009,12,06,05,34,3.40
2009,12,06,05,35,3.30
2009,12,06,05,36,3.20
2009,12,06,05,37,3.20
2009,12,06,05,38,3.10
2009,12,06,05,39,3.10
2009,12,06,05,40,3.10
2009,12,06,05,41,3.10
2009,12,06,05,42,3.10
2009,12,06,05,43,3.20
2009,12,06,05,44,3.30
2009,12,06,05,45,3.30
2009,12,06,05,46,3.40
2009,12,06,05,47,3.40
2009,12,06,05,48,3.40
2009,12,06,05,49,3.40
2009,12,06,05,50,3.40
2009,12,06,05,51,3.40
2009,12,06,05,52,3.30
2009,12,06,05,53,3.40
2009,12,06,05,54,3.40
2009,12,06,05,55,3.30
2009,12,06,05,56,3.30
2009,12,06,05,57,3.30
2009,12,06,05,58,3.40
2009,12,06,05,59,3.40
2009,12,06,06,00,3.40
2009,12,06,06,01,3.40
2009,12,06,06,02,3.40
2009,12,06,06,03,3.40
2009,12,06,06,04,3.40
2009,12,06,06,05,3.40
2009,12,06,06,06,3.30
2009,12,06,06,07,3.30
2009,12,06,06,08,3.30
2009,12,06,06,09,3.30
2009,12,06,06,10,3.30
2009,12,06,06,11,3.30
2009,12,06,06,12,3.30
2009,12,06,06,13,3.30
2009,12,06,06,14,3.30
2009,12,06,06,15,3.40
2009,12,06,06,16,3.40
2009,12,06,06,17,3.40
2009,12,06,06,18,3.40
2009,12,06,06,19,3.50
2009,12,06,06,20,3.40
2009,12,06,06,21,3.40
2009,12,06,06,22,3.40
2009,12,06,06,23,3.40
2009,12,06,06,24,3.40
2009,12,06,06,25,3.40
2009,12,06,06,26,3.40
2009,12,06,06,27,3.40
2009,12,06,06,28,3.40
2009,12,06,06,29,3.40
2009,12,06,06,30,3.40
2009,12,06,06,31,3.40
2009,12,06,06,32,3.40
2009,12,06,06,33,3.40
2009,12,06,06,34,3.40
2009,12,06,06,35,3.40
2009,12,06,06,36,3.40
2009,12,06,06,37,3.40
2009,12,06,06,38,3.40
2009,12,06,06,39,3.40
2009,12,06,06,40,3.40
2009,12,06,06,41,3.40
2009,12,06,06,42,3.40
2009,12,06,06,43,3.40
2009,12,06,06,44,3.50
2009,12,06,06,45,3.50
2009,12,06,06,46,3.50
2009,12,06,06,47,3.50
2009,12,06,06,48,3.50
2009,12,06,06,49,3.50
2009,12,06,06,50,3.50
2009,12,06,06,51,3.50
2009,12,06,06,52,3.50
2009,12,06,06,53,3.50
2009,12,06,06,54,3.50
2009,12,06,06,55,3.50
2009,12,06,06,56,3.50
2009,12,06,06,57,3.50
2009,12,06,06,58,3.50
2009,12,06,06,59,3.40
2009,12,06,07,00,3.40
2009,12,06,07,01,3.40
2009,12,06,07,02,3.40
2009,12,06,07,03,3.40
2009,12,06,07,04,3.50
2009,12,06,07,05,3.50
2009,12,06,07,06,3.50
2009,12,06,07,07,3.50
2009,12,06,07,08,3.50
2009,12,06,07,09,3.40
2009,12,06,07,10,3.40
2009,12,06,07,11,3.40
2009,12,06,07,12,3.40
2009,12,06,07,13,3.40
2009,12,06,07,14,3.30
2009,12,06,07,15,3.20
2009,12,06,07,16,3.10
2009,12,06,07,17,3.00
2009,12,06,07,18,3.00
2009,12,06,07,19,3.00
2009,12,06,07,20,3.10
2009,12,06,07,21,3.10
2009,12,06,07,22,3.10
2009,12,06,07,23,3.10
2009,12,06,07,24,3.00
2009,12,06,07,25,3.00
2009,12,06,07,26,3.00
2009,12,06,07,27,3.00
2009,12,06,07,28,3.00
2009,12,06,07,29,3.10
2009,12,06,07,30,3.10
2009,12,06,07,31,3.10
2009,12,06,07,32,3.10
2009,12,06,07,33,3.10
2009,12,06,07,34,3.20
2009,12,06,07,35,3.20
2009,12,06,07,36,3.20
2009,12,06,07,37,3.20
2009,12,06,07,38,3.20
2009,12,06,07,39,3.20
2009,12,06,07,40,3.20
2009,12,06,07,41,3.20
2009,12,06,07,42,3.30
2009,12,06,07,43,3.30
2009,12,06,07,44,3.30
2009,12,06,07,45,3.30
2009,12,06,07,46,3.30
2009,12,06,07,47,3.30
2009,12,06,07,48,3.30
2009,12,06,07,49,3.30
2009,12,06,07,50,3.30
2009,12,06,07,51,3.40
2009,12,06,07,52,3.40
2009,12,06,07,53,3.40
2009,12,06,07,54,3.30
2009,12,06,07,55,3.30
2009,12,06,07,56,3.30
2009,12,06,07,57,3.30
2009,12,06,07,58,3.40
2009,12,06,07,59,3.40
2009,12,06,08,00,3.40
2009,12,06,08,01,3.40
2009,12,06,08,02,3.30
2009,12,06,08,03,3.20
2009,12,06,08,04,3.00
2009,12,06,08,05,2.70
2009,12,06,08,06,2.50
2009,12,06,08,07,2.20
2009,12,06,08,08,1.90
2009,12,06,08,09,1.70
2009,12,06,08,10,1.40
2009,12,06,08,11,1.30
2009,12,06,08,12,1.10
2009,12,06,08,13,0.90
2009,12,06,08,14,0.80
2009,12,06,08,15,0.70
2009,12,06,08,16,0.60
2009,12,06,08,17,0.50
2009,12,06,08,18,0.40
2009,12,06,08,19,0.30
2009,12,06,08,20,0.30
2009,12,06,08,21,0.20
2009,12,06,08,22,0.20
2009,12,06,08,23,0.20
2009,12,06,08,24,0.20
2009,12,06,08,25,0.20
2009,12,06,08,26,0.20
2009,12,06,08,27,0.20
2009,12,06,08,28,0.20
2009,12,06,08,29,0.30
2009,12,06,08,30,0.30
2009,12,06,08,31,0.20
2009,12,06,08,32,0.20
2009,12,06,08,33,0.20
2009,12,06,08,34,0.20
2009,12,06,08,35,0.10
2009,12,06,08,36,0.10
2009,12,06,08,37,0.10
2009,12,06,08,38,0.10
2009,12,06,08,39,0.20
2009,12,06,08,40,0.20
2009,12,06,08,41,0.30
2009,12,06,08,42,0.30
2009,12,06,08,43,0.40
2009,12,06,08,44,0.40
2009,12,06,08,45,0.40
2009,12,06,08,46,0.40
2009,12,06,08,47,0.50
2009,12,06,08,48,0.50
2009,12,06,08,49,0.50
2009,12,06,08,50,0.50
2009,12,06,08,51,0.50
2009,12,06,08,52,0.50
2009,12,06,08,53,0.40
2009,12,06,08,54,0.40
2009,12,06,08,55,0.40
2009,12,06,08,56,0.40
2009,12,06,08,57,0.40
2009,12,06,08,58,0.40
2009,12,06,08,59,0.40
2009,12,06,09,00,0.40
2009,12,06,09,01,0.40
2009,12,06,09,02,0.40
2009,12,06,09,03,0.40
2009,12,06,09,04,0.50
2009,12,06,09,05,0.50
2009,12,06,09,06,0.60
2009,12,06,09,07,0.60
2009,12,06,09,08,0.70
2009,12,06,09,09,0.70
2009,12,06,09,10,0.70
2009,12,06,09,11,0.70
2009,12,06,09,12,0.70
2009,12,06,09,13,0.70
2009,12,06,09,14,0.70
2009,12,06,09,15,0.70
2009,12,06,09,16,0.70
2009,12,06,09,17,0.70
2009,12,06,09,18,0.70
2009,12,06,09,19,0.70
2009,12,06,09,20,0.70
2009,12,06,09,21,0.70
2009,12,06,09,22,0.70
2009,12,06,09,23,0.70
2009,12,06,09,24,0.80
2009,12,06,09,25,0.80
2009,12,06,09,26,0.80
2009,12,06,09,27,0.80
2009,12,06,09,28,0.90
2009,12,06,09,29,0.90
2009,12,06,09,30,0.90
2009,12,06,09,31,0.90
2009,12,06,09,32,1.00
2009,12,06,09,33,1.10
2009,12,06,09,34,1.10
2009,12,06,09,35,1.10
2009,12,06,09,36,1.20
2009,12,06,09,37,1.20
2009,12,06,09,38,1.20
2009,12,06,09,39,1.30
2009,12,06,09,40,1.30
2009,12,06,09,41,1.30
2009,12,06,09,42,1.30
2009,12,06,09,43,1.30
2009,12,06,09,44,1.30
2009,12,06,09,45,1.30
2009,12,06,09,46,1.30
2009,12,06,09,47,1.40
2009,12,06,09,48,1.40
2009,12,06,09,49,1.50
2009,12,06,09,50,1.60
2009,12,06,09,51,1.60
2009,12,06,09,52,1.60
2009,12,06,09,53,1.70
2009,12,06,09,54,1.70
2009,12,06,09,55,1.70
2009,12,06,09,56,1.70
2009,12,06,09,57,1.70
2009,12,06,09,58,1.80
2009,12,06,09,59,1.80
2009,12,06,10,00,1.80
2009,12,06,10,01,1.80
2009,12,06,10,02,1.80
2009,12,06,10,03,1.90
2009,12,06,10,04,1.90
2009,12,06,10,05,2.00
2009,12,06,10,06,2.00
2009,12,06,10,07,2.00
2009,12,06,10,08,2.10
2009,12,06,10,09,2.10
2009,12,06,10,10,2.10
2009,12,06,10,11,2.20
2009,12,06,10,12,2.20
2009,12,06,10,13,2.20
2009,12,06,10,14,2.30
2009,12,06,10,15,2.30
2009,12,06,10,16,2.30
2009,12,06,10,17,2.40
2009,12,06,10,18,2.40
2009,12,06,10,19,2.40
2009,12,06,10,20,2.50
2009,12,06,10,21,2.50
2009,12,06,10,22,2.50
2009,12,06,10,23,2.50
2009,12,06,10,24,2.50
2009,12,06,10,25,2.60
2009,12,06,10,26,2.60
2009,12,06,10,27,2.60
2009,12,06,10,28,2.60
2009,12,06,10,29,2.60
2009,12,06,10,30,2.70
2009,12,06,10,31,2.70
2009,12,06,10,32,2.70
2009,12,06,10,33,2.80
2009,12,06,10,34,2.80
2009,12,06,10,35,2.80
2009,12,06,10,36,2.80
2009,12,06,10,37,2.80
2009,12,06,10,38,2.90
2009,12,06,10,39,2.90
2009,12,06,10,40,2.90
2009,12,06,10,41,2.90
2009,12,06,10,42,2.90
2009,12,06,10,43,2.90
2009,12,06,10,44,3.00
2009,12,06,10,45,3.00
2009,12,06,10,46,3.10
2009,12,06,10,47,3.10
2009,12,06,10,48,3.10
2009,12,06,10,49,3.10
2009,12,06,10,50,3.20
2009,12,06,10,51,3.20
2009,12,06,10,52,3.30
2009,12,06,10,53,3.30
2009,12,06,10,54,3.30
2009,12,06,10,55,3.40
2009,12,06,10,56,3.40
2009,12,06,10,57,3.40
2009,12,06,10,58,3.50
2009,12,06,10,59,3.50
2009,12,06,11,00,3.50
2009,12,06,11,01,3.50
2009,12,06,11,02,3.50
2009,12,06,11,03,3.60
2009,12,06,11,04,3.60
2009,12,06,11,05,3.70
2009,12,06,11,06,3.70
2009,12,06,11,07,3.80
2009,12,06,11,08,3.80
2009,12,06,11,09,3.80
2009,12,06,11,10,3.90
2009,12,06,11,11,3.90
2009,12,06,11,12,3.90
2009,12,06,11,13,4.00
2009,12,06,11,14,4.00
2009,12,06,11,15,4.10
2009,12,06,11,16,4.10
2009,12,06,11,17,4.20
2009,12,06,11,18,4.30
2009,12,06,11,19,4.30
2009,12,06,11,20,4.30
2009,12,06,11,21,4.40
2009,12,06,11,22,4.50
2009,12,06,11,23,4.60
2009,12,06,11,24,4.60
2009,12,06,11,25,4.70
2009,12,06,11,26,4.70
2009,12,06,11,27,4.70
2009,12,06,11,28,4.70
2009,12,06,11,29,4.70
2009,12,06,11,30,4.70
2009,12,06,11,31,4.70
2009,12,06,11,32,4.70
2009,12,06,11,33,4.70
2009,12,06,11,34,4.70
2009,12,06,11,35,4.70
2009,12,06,11,36,4.60
2009,12,06,11,37,4.60
2009,12,06,11,38,4.60
2009,12,06,11,39,4.60
2009,12,06,11,40,4.70
2009,12,06,11,41,4.70
2009,12,06,11,42,4.70
2009,12,06,11,43,4.70
2009,12,06,11,44,4.70
2009,12,06,11,45,4.70
2009,12,06,11,46,4.80
2009,12,06,11,47,4.80
2009,12,06,11,48,4.80
2009,12,06,11,49,4.80
2009,12,06,11,50,4.80
2009,12,06,11,51,4.80
2009,12,06,11,52,4.90
2009,12,06,11,53,4.90
2009,12,06,11,54,4.80
2009,12,06,11,55,4.80
2009,12,06,11,56,4.80
2009,12,06,11,57,4.80
2009,12,06,11,58,4.70
2009,12,06,11,59,4.70
2009,12,06,12,00,4.70
2009,12,06,12,01,4.70
2009,12,06,12,02,4.70
2009,12,06,12,03,4.70
2009,12,06,12,04,4.60
2009,12,06,12,05,4.60
2009,12,06,12,06,4.60
2009,12,06,12,07,4.70
2009,12,06,12,08,4.70
2009,12,06,12,09,4.70
2009,12,06,12,10,4.80
2009,12,06,12,11,4.80
2009,12,06,12,12,4.80
2009,12,06,12,13,4.80
2009,12,06,12,14,4.80
2009,12,06,12,15,4.80
2009,12,06,12,16,4.80
2009,12,06,12,17,4.80
2009,12,06,12,18,4.70
2009,12,06,12,19,4.70
2009,12,06,12,20,4.80
2009,12,06,12,21,4.80
2009,12,06,12,22,4.80
2009,12,06,12,23,4.90
2009,12,06,12,24,4.90
2009,12,06,12,25,4.90
2009,12,06,12,26,4.90
2009,12,06,12,27,4.90
2009,12,06,12,28,4.90
2009,12,06,12,29,4.90
2009,12,06,12,30,5.00
2009,12,06,12,31,5.00
2009,12,06,12,32,5.10
2009,12,06,12,33,5.10
2009,12,06,12,34,5.10
2009,12,06,12,35,5.10
2009,12,06,12,36,5.20
2009,12,06,12,37,5.20
2009,12,06,12,38,5.20
2009,12,06,12,39,5.20
2009,12,06,12,40,5.20
2009,12,06,12,41,5.20
2009,12,06,12,42,5.10
2009,12,06,12,43,5.10
2009,12,06,12,44,5.10
2009,12,06,12,45,5.10
2009,12,06,12,46,5.10
2009,12,06,12,47,5.00
2009,12,06,12,48,5.00
2009,12,06,12,49,5.00
2009,12,06,12,50,4.90
2009,12,06,12,51,4.90
2009,12,06,12,52,4.90
2009,12,06,12,53,5.00
2009,12,06,12,54,5.00
2009,12,06,12,55,5.10
2009,12,06,12,56,5.10
2009,12,06,12,57,5.10
2009,12,06,12,58,5.10
2009,12,06,12,59,5.10
2009,12,06,13,00,5.10
2009,12,06,13,01,5.10
2009,12,06,13,02,5.10
2009,12,06,13,03,5.10
2009,12,06,13,04,5.10
2009,12,06,13,05,5.10
2009,12,06,13,06,5.10
2009,12,06,13,07,5.10
2009,12,06,13,08,5.20
2009,12,06,13,09,5.20
2009,12,06,13,10,5.20
2009,12,06,13,11,5.20
2009,12,06,13,12,5.30
2009,12,06,13,13,5.30
2009,12,06,13,14,5.30
2009,12,06,13,15,5.30
2009,12,06,13,16,5.30
2009,12,06,13,17,5.30
2009,12,06,13,18,5.30
2009,12,06,13,19,5.30
2009,12,06,13,20,5.30
2009,12,06,13,21,5.30
2009,12,06,13,22,5.30
2009,12,06,13,23,5.30
2009,12,06,13,24,5.30
2009,12,06,13,25,5.30
2009,12,06,13,26,5.30
2009,12,06,13,27,5.30
2009,12,06,13,28,5.30
2009,12,06,13,29,5.30
2009,12,06,13,30,5.30
2009,12,06,13,31,5.30
2009,12,06,13,32,5.30
2009,12,06,13,33,5.30
2009,12,06,13,34,5.20
2009,12,06,13,35,5.20
2009,12,06,13,36,5.20
2009,12,06,13,37,5.20
2009,12,06,13,38,5.20
2009,12,06,13,39,5.20
2009,12,06,13,40,5.20
2009,12,06,13,41,5.10
2009,12,06,13,42,5.10
2009,12,06,13,43,5.10
2009,12,06,13,44,5.10
2009,12,06,13,45,5.10
2009,12,06,13,46,5.10
2009,12,06,13,47,5.10
2009,12,06,13,48,5.10
2009,12,06,13,49,5.10
2009,12,06,13,50,5.10
2009,12,06,13,51,5.10
2009,12,06,13,52,5.10
2009,12,06,13,53,5.10
2009,12,06,13,54,5.10
2009,12,06,13,55,5.10
2009,12,06,13,56,5.10
2009,12,06,13,57,5.10
2009,12,06,13,58,5.10
2009,12,06,13,59,5.10
2009,12,06,14,00,5.10
2009,12,06,14,01,5.10
2009,12,06,14,02,5.10
2009,12,06,14,03,5.10
2009,12,06,14,04,5.10
2009,12,06,14,05,5.10
2009,12,06,14,06,5.10
2009,12,06,14,07,5.10
2009,12,06,14,08,5.10
2009,12,06,14,09,5.10
2009,12,06,14,10,5.10
2009,12,06,14,11,5.10
2009,12,06,14,12,5.10
2009,12,06,14,13,5.10
2009,12,06,14,14,5.10
2009,12,06,14,15,5.10
2009,12,06,14,16,5.10
2009,12,06,14,17,5.10
2009,12,06,14,18,5.10
2009,12,06,14,19,5.10
2009,12,06,14,20,5.10
2009,12,06,14,21,5.10
2009,12,06,14,22,5.10
2009,12,06,14,23,5.10
2009,12,06,14,24,5.10
2009,12,06,14,25,5.10
2009,12,06,14,26,5.10
2009,12,06,14,27,5.10
2009,12,06,14,28,5.10
2009,12,06,14,29,5.10
2009,12,06,14,30,5.10
2009,12,06,14,31,5.10
2009,12,06,14,32,5.10
2009,12,06,14,33,5.10
2009,12,06,14,34,5.10
2009,12,06,14,35,5.20
2009,12,06,14,36,5.20
2009,12,06,14,37,5.20
2009,12,06,14,38,5.10
2009,12,06,14,39,5.10
2009,12,06,14,40,5.10
2009,12,06,14,41,5.10
2009,12,06,14,42,5.10
2009,12,06,14,43,5.00
2009,12,06,14,44,5.00
2009,12,06,14,45,5.00
2009,12,06,14,46,5.00
2009,12,06,14,47,5.00
2009,12,06,14,48,5.00
2009,12,06,14,49,5.00
2009,12,06,14,50,5.00
2009,12,06,14,51,4.90
2009,12,06,14,52,4.90
2009,12,06,14,53,4.90
2009,12,06,14,54,4.90
2009,12,06,14,55,4.80
2009,12,06,14,56,4.80
2009,12,06,14,57,4.80
2009,12,06,14,58,4.80
2009,12,06,14,59,4.80
2009,12,06,15,00,4.80
2009,12,06,15,01,4.80
2009,12,06,15,02,4.70
2009,12,06,15,03,4.70
2009,12,06,15,04,4.70
2009,12,06,15,05,4.70
2009,12,06,15,06,4.70
2009,12,06,15,07,4.70
2009,12,06,15,08,4.70
2009,12,06,15,09,4.70
2009,12,06,15,10,4.60
2009,12,06,15,11,4.60
2009,12,06,15,12,4.60
2009,12,06,15,13,4.60
2009,12,06,15,14,4.60
2009,12,06,15,15,4.60
2009,12,06,15,16,4.60
2009,12,06,15,17,4.50
2009,12,06,15,18,4.50
2009,12,06,15,19,4.50
2009,12,06,15,20,4.50
2009,12,06,15,21,4.50
2009,12,06,15,22,4.50
2009,12,06,15,23,4.40
2009,12,06,15,24,4.40
2009,12,06,15,25,4.40
2009,12,06,15,26,4.40
2009,12,06,15,27,4.40
2009,12,06,15,28,4.40
2009,12,06,15,29,4.30
2009,12,06,15,30,4.30
2009,12,06,15,31,4.30
2009,12,06,15,32,4.30
2009,12,06,15,33,4.30
2009,12,06,15,34,4.30
2009,12,06,15,35,4.30
2009,12,06,15,36,4.30
2009,12,06,15,37,4.30
2009,12,06,15,38,4.30
2009,12,06,15,39,4.30
2009,12,06,15,40,4.30
2009,12,06,15,41,4.30
2009,12,06,15,42,4.30
2009,12,06,15,43,4.30
2009,12,06,15,44,4.30
2009,12,06,15,45,4.20
2009,12,06,15,46,4.20
2009,12,06,15,47,4.20
2009,12,06,15,48,4.10
2009,12,06,15,49,4.10
2009,12,06,15,50,4.10
2009,12,06,15,51,4.00
2009,12,06,15,52,4.00
2009,12,06,15,53,4.00
2009,12,06,15,54,3.90
2009,12,06,15,55,3.90
2009,12,06,15,56,3.90
2009,12,06,15,57,3.90
2009,12,06,15,58,3.90
2009,12,06,15,59,3.90
2009,12,06,16,00,3.90
2009,12,06,16,01,3.90
2009,12,06,16,02,3.90
2009,12,06,16,03,3.90
2009,12,06,16,04,3.90
2009,12,06,16,05,3.90
2009,12,06,16,06,3.90
2009,12,06,16,07,3.80
2009,12,06,16,08,3.80
2009,12,06,16,09,3.80
2009,12,06,16,10,3.70
2009,12,06,16,11,3.70
2009,12,06,16,12,3.70
2009,12,06,16,13,3.70
2009,12,06,16,14,3.70
2009,12,06,16,15,3.70
2009,12,06,16,16,3.70
2009,12,06,16,17,3.70
2009,12,06,16,18,3.70
2009,12,06,16,19,3.70
2009,12,06,16,20,3.70
2009,12,06,16,21,3.70
2009,12,06,16,22,3.70
2009,12,06,16,23,3.70
2009,12,06,16,24,3.70
2009,12,06,16,25,3.70
2009,12,06,16,26,3.70
2009,12,06,16,27,3.60
2009,12,06,16,28,3.60
2009,12,06,16,29,3.60
2009,12,06,16,30,3.60
2009,12,06,16,31,3.60
2009,12,06,16,32,3.60
2009,12,06,16,33,3.60
2009,12,06,16,34,3.60
2009,12,06,16,35,3.60
2009,12,06,16,36,3.60
2009,12,06,16,37,3.60
2009,12,06,16,38,3.60
2009,12,06,16,39,3.60
2009,12,06,16,40,3.60
2009,12,06,16,41,3.60
2009,12,06,16,42,3.60
2009,12,06,16,43,3.60
2009,12,06,16,44,3.50
2009,12,06,16,45,3.60
2009,12,06,16,46,3.50
2009,12,06,16,47,3.50
2009,12,06,16,48,3.40
2009,12,06,16,49,3.40
2009,12,06,16,50,3.40
2009,12,06,16,51,3.40
2009,12,06,16,52,3.40
2009,12,06,16,53,3.40
2009,12,06,16,54,3.40
2009,12,06,16,55,3.40
2009,12,06,16,56,3.40
2009,12,06,16,57,3.50
2009,12,06,16,58,3.50
2009,12,06,16,59,3.50
2009,12,06,17,00,3.50
2009,12,06,17,01,3.50
2009,12,06,17,02,3.60
2009,12,06,17,03,3.60
2009,12,06,17,04,3.50
2009,12,06,17,05,3.50
2009,12,06,17,06,3.50
2009,12,06,17,07,3.50
2009,12,06,17,08,3.50
2009,12,06,17,09,3.50
2009,12,06,17,10,3.40
2009,12,06,17,11,3.40
2009,12,06,17,12,3.40
2009,12,06,17,13,3.40
2009,12,06,17,14,3.40
2009,12,06,17,15,3.40
2009,12,06,17,16,3.30
2009,12,06,17,17,3.30
2009,12,06,17,18,3.30
2009,12,06,17,19,3.30
2009,12,06,17,20,3.20
2009,12,06,17,21,3.20
2009,12,06,17,22,3.20
2009,12,06,17,23,3.20
2009,12,06,17,24,3.20
2009,12,06,17,25,3.20
2009,12,06,17,26,3.20
2009,12,06,17,27,3.20
2009,12,06,17,28,3.30
2009,12,06,17,29,3.30
2009,12,06,17,30,3.30
2009,12,06,17,31,3.30
2009,12,06,17,32,3.30
2009,12,06,17,33,3.30
2009,12,06,17,34,3.30
2009,12,06,17,35,3.30
2009,12,06,17,36,3.30
2009,12,06,17,37,3.30
2009,12,06,17,38,3.30
2009,12,06,17,39,3.30
2009,12,06,17,40,3.40
2009,12,06,17,41,3.40
2009,12,06,17,42,3.30
2009,12,06,17,43,3.30
2009,12,06,17,44,3.30
2009,12,06,17,45,3.30
2009,12,06,17,46,3.30
2009,12,06,17,47,3.30
2009,12,06,17,48,3.30
2009,12,06,17,49,3.30
2009,12,06,17,50,3.30
2009,12,06,17,51,3.30
2009,12,06,17,52,3.30
2009,12,06,17,53,3.30
2009,12,06,17,54,3.30
2009,12,06,17,55,3.30
2009,12,06,17,56,3.30
2009,12,06,17,57,3.30
2009,12,06,17,58,3.30
2009,12,06,17,59,3.30
2009,12,06,18,00,3.30
2009,12,06,18,01,3.30
2009,12,06,18,02,3.30
2009,12,06,18,03,3.30
2009,12,06,18,04,3.30
2009,12,06,18,05,3.40